NC0S Weather Reports


time (UTC)temp
C
wind
direction
speed
KPH
gust
KPH
rain 1hr
cm
rain 24hr
cm
rain mn
cm
humidity
%
barometer
mb
20260502164031 15 28 1.6 4.8 0.00 0.00 0.00 35 1023.0
20260502163052 15 34 1.6 6.4 0.00 0.00 0.00 37 1023.1
20260502162032 15 43 1.6 6.4 0.00 0.00 0.00 38 1023.2
20260502161032 15 46 1.6 9.7 0.00 0.00 0.00 41 1023.1
20260502152032 13 324 1.6 3.2 0.00 0.00 0.00 45 1023.1
20260502151032 13 6 1.6 4.8 0.00 0.00 0.00 47 1023.1
20260502123032 5 0.0 0.0 0.00 0.00 0.00 72 1022.0
20260502122113 4 0.0 0.0 0.00 0.00 0.00 76 1022.1
20260502121032 3 0.0 0.0 0.00 0.00 0.00 77 1021.9
20260502115052 3 0.0 0.0 0.00 0.00 0.00 79 1021.6
20260502114033 2 0.0 0.0 0.00 0.00 0.00 80 1021.5
20260502113032 2 0.0 0.0 0.00 0.00 0.00 77 1021.5
20260502112032 2 0.0 0.0 0.00 0.00 0.00 77 1021.3
20260502111032 2 0.0 0.0 0.00 0.00 0.00 78 1021.4
20260502110032 2 0.0 0.0 0.00 0.00 0.00 78 1021.3
20260502105032 3 0.0 0.0 0.00 0.00 0.00 77 1021.4
20260502104032 3 0.0 0.0 0.00 0.00 0.00 77 1021.3
20260502103032 3 0.0 0.0 0.00 0.00 0.00 74 1021.3
20260502102032 3 0.0 0.0 0.00 0.00 0.00 73 1021.1
20260502101032 3 0.0 0.0 0.00 0.00 0.00 70 1020.9
20260502100112 4 0.0 0.0 0.00 0.00 0.00 70 1021.0
20260502091052 5 0.0 0.0 0.00 0.00 0.00 67 1020.7
20260502071032 7 0.0 1.6 0.00 0.00 0.00 52 1020.5
20260502070033 8 0.0 0.0 0.00 0.00 0.00 50 1020.4
20260502065032 8 0.0 0.0 0.00 0.00 0.00 48 1020.5
20260502064032 8 20 0.0 1.6 0.00 0.00 0.00 47 1020.5
20260502063052 8 0.0 0.0 0.00 0.00 0.00 47 1020.6
20260502062032 9 0.0 1.6 0.00 0.00 0.00 46 1020.6
20260502061032 9 0.0 1.6 0.00 0.00 0.00 45 1020.7
20260502055031 10 4 0.0 1.6 0.00 0.00 0.00 45 1020.7
20260502054152 10 16 0.0 6.4 0.00 0.00 0.00 45 1020.7
20260502053032 10 13 0.0 3.2 0.00 0.00 0.00 46 1020.5
20260502052032 10 17 0.0 1.6 0.00 0.00 0.00 45 1020.6
20260502051032 10 14 0.0 1.6 0.00 0.00 0.00 45 1020.4
20260502050032 10 15 0.0 3.2 0.00 0.00 0.00 46 1020.5
20260502045033 10 37 0.0 3.2 0.00 0.00 0.00 46 1020.5
20260502044032 10 0.0 0.0 0.00 0.00 0.00 46 1020.4
20260502043032 10 0.0 0.0 0.00 0.00 0.00 46 1020.4
20260502042052 11 23 0.0 1.6 0.00 0.00 0.00 46 1020.3
20260502041032 11 0.0 3.2 0.00 0.00 0.00 47 1020.2
20260502040112 11 0.0 1.6 0.00 0.00 0.00 48 1020.1
20260502035052 11 0.0 1.6 0.00 0.00 0.00 48 1020.0
20260502034032 11 0.0 0.0 0.00 0.00 0.00 47 1020.1
20260502033033 11 52 0.0 1.6 0.00 0.00 0.00 47 1019.9
20260502032052 11 0.0 0.0 0.00 0.00 0.00 50 1019.9
20260502031032 11 0.0 0.0 0.00 0.00 0.00 51 1019.8
20260502030032 11 0.0 0.0 0.00 0.00 0.00 51 1019.5
20260502025052 11 0.0 0.0 0.00 0.00 0.00 50 1019.4
20260502024032 11 0.0 0.0 0.00 0.00 0.00 50 1019.3
20260502023033 11 0.0 0.0 0.00 0.00 0.00 48 1019.2
20260502022052 12 0.0 0.0 0.00 0.00 0.00 48 1019.1
20260502021032 12 0.0 0.0 0.00 0.00 0.00 45 1018.9
20260502020032 13 0.0 1.6 0.00 0.00 0.00 45 1018.7
20260502015033 13 0.0 0.0 0.00 0.00 0.00 43 1018.6
20260502014032 13 0.0 0.0 0.00 0.00 0.00 42 1018.5
20260502013032 13 0.0 3.2 0.00 0.00 0.00 40 1018.2
20260502012052 14 26 0.0 1.6 0.00 0.00 0.00 39 1018.0
20260502011032 15 90 0.0 1.6 0.00 0.00 0.00 37 1018.0
20260502010032 15 357 1.6 11.3 0.00 0.00 0.00 36 1017.8
20260502005033 15 0.0 1.6 0.00 0.00 0.00 37 1017.6
20260502004032 15 71 0.0 1.6 0.00 0.00 0.00 36 1017.5
20260502003032 16 70 0.0 1.6 0.00 0.00 0.00 35 1017.4
20260502002052 16 92 0.0 3.2 0.00 0.00 0.00 35 1017.3
20260502001032 16 6 0.0 3.2 0.00 0.00 0.00 34 1017.2
20260502000032 16 353 1.6 6.4 0.00 0.00 0.00 34 1017.2
20260501235053 16 43 0.0 4.8 0.00 0.00 0.00 34 1017.2
20260501234032 16 52 1.6 11.3 0.00 0.00 0.00 33 1017.2
20260501233052 17 325 1.6 3.2 0.00 0.00 0.00 33 1017.2
20260501232032 17 1 0.0 6.4 0.00 0.00 0.00 33 1017.1
20260501231032 17 20 0.0 4.8 0.00 0.00 0.00 33 1017.2
20260501230032 17 340 0.0 3.2 0.00 0.00 0.00 32 1017.1
20260501225052 17 353 1.6 9.7 0.00 0.00 0.00 33 1017.3
20260501224032 17 327 1.6 6.4 0.00 0.00 0.00 32 1017.2
20260501223032 17 297 1.6 6.4 0.00 0.00 0.00 33 1017.2
20260501222032 17 350 1.6 4.8 0.00 0.00 0.00 33 1017.2
20260501221031 17 334 0.0 3.2 0.00 0.00 0.00 35 1017.3
20260501220032 17 348 1.6 4.8 0.00 0.00 0.00 34 1017.5
20260501215032 18 22 0.0 1.6 0.00 0.00 0.00 34 1017.4
20260501214032 17 337 1.6 6.4 0.00 0.00 0.00 35 1017.5
20260501213032 17 311 0.0 1.6 0.00 0.00 0.00 37 1017.7
20260501212032 17 325 1.6 3.2 0.00 0.00 0.00 35 1017.9
20260501211032 17 239 0.0 3.2 0.00 0.00 0.00 35 1018.0
20260501210032 18 0.0 3.2 0.00 0.00 0.00 35 1018.2
20260501205032 18 43 1.6 6.4 0.00 0.00 0.00 36 1018.5
20260501204032 18 53 0.0 3.2 0.00 0.00 0.00 34 1018.4
20260501203033 18 232 0.0 1.6 0.00 0.00 0.00 33 1018.6
20260501202052 18 324 0.0 4.8 0.00 0.00 0.00 33 1018.8
20260501201032 17 271 0.0 1.6 0.00 0.00 0.00 34 1018.9
20260501200032 18 235 0.0 3.2 0.00 0.00 0.00 33 1019.1
20260501195033 18 289 0.0 3.2 0.00 0.00 0.00 31 1019.2
20260501194033 18 345 0.0 3.2 0.00 0.00 0.00 34 1019.3
20260501193031 18 253 0.0 3.2 0.00 0.00 0.00 32 1019.3
20260501192032 18 324 0.0 1.6 0.00 0.00 0.00 34 1019.3
20260501191032 17 301 1.6 6.4 0.00 0.00 0.00 33 1019.3
20260501190032 17 291 0.0 3.2 0.00 0.00 0.00 33 1019.3
20260501185032 18 28 0.0 3.2 0.00 0.00 0.00 32 1019.5
20260501184112 18 312 1.6 4.8 0.00 0.00 0.00 30 1019.5
20260501183032 18 275 1.6 4.8 0.00 0.00 0.00 33 1019.7
20260501182032 18 69 0.0 4.8 0.00 0.00 0.00 33 1019.5
20260501181052 17 29 1.6 3.2 0.00 0.00 0.00 34 1019.7